Location: Cactus School
(34.5700°N, 118.0931°W)
Time: 01:34:44
(UTC-07:00)

Vanguard 2 - Visible Passes

Search period start: 21 June 2018 00:00
Search period end: 01 July 2018 00:00
Orbit: 553 x 2939 km, 32.9° (Epoch: 20 June)

Date Brightness Start Highest point End Pass type
(mag) Time Alt. Az. Time Alt. Az. Time Alt. Az.
21 Jun 9.1 02:58:24 29° SSE 02:58:24 29° SSE 03:02:40 10° E visible
21 Jun 7.6 05:00:22 10° WSW 05:06:25 60° S 05:10:39 10° E visible
22 Jun 8.6 03:15:02 37° S 03:15:56 39° SSE 03:20:59 10° E visible
23 Jun 10.4 01:30:13 11° ESE 01:30:13 11° ESE 01:30:29 10° ESE visible
23 Jun 8.3 03:31:36 36° SW 03:34:04 50° SSE 03:39:10 10° E visible
24 Jun 9.9 01:46:44 21° ESE 01:46:44 21° ESE 01:49:09 10° E visible
24 Jun 8.0 03:48:07 27° WSW 03:52:10 61° S 03:57:15 10° E visible
25 Jun 9.3 02:03:11 36° SE 02:03:11 36° SE 02:07:31 10° E visible
25 Jun 7.9 04:04:33 19° WSW 04:10:16 70° S 04:15:17 10° E visible
26 Jun 8.8 02:19:32 51° SSE 02:19:32 51° SSE 02:25:43 10° E visible
26 Jun 7.8 04:20:55 11° W 04:28:23 76° S 04:33:19 10° E visible
27 Jun 10.5 00:34:27 14° E 00:34:27 14° E 00:35:20 10° E visible
27 Jun 8.6 02:35:48 53° SSW 02:37:28 62° SSE 02:43:50 10° E visible
27 Jun 7.8 04:38:47 10° W 04:46:30 77° S 04:51:20 10° E visible
27 Jun 11.4 22:25:24 10° S 22:25:41 10° S 22:25:41 10° S visible
28 Jun 10.0 00:50:34 26° ESE 00:50:34 26° ESE 00:53:46 10° E visible
28 Jun 8.4 02:51:54 40° WSW 02:55:37 71° S 03:01:53 10° E visible
28 Jun 7.8 04:57:08 10° W 05:04:36 73° S 05:09:20 10° ESE visible
28 Jun 11.1 22:41:14 10° SSW 23:05:09 - E 22:44:56 17° S visible
29 Jun 9.4 01:06:28 44° ESE 01:06:28 44° ESE 01:12:02 10° E visible
29 Jun 8.4 03:07:47 26° WSW 03:13:46 77° S 03:19:55 10° E visible
29 Jun 11.0 20:55:04 10° SSE 21:00:11 12° SE 21:03:08 11° SE visible
29 Jun 10.8 22:57:50 10° SSW 23:20:43 11° E 23:21:02 10° E visible
30 Jun 9.1 01:22:00 62° SSE 01:22:07 62° SSE 01:30:11 10° E visible
30 Jun 8.3 03:23:16 15° W 03:31:56 80° S 03:37:57 10° E visible
30 Jun 10.9 21:08:24 10° S 21:18:24 18° SE 21:24:03 15° ESE visible
30 Jun 10.2 23:14:56 10° SW 23:35:26 27° ESE 23:39:34 10° E visible
